NOAA 16 DEB, 41149

Orbit data source: Space-Track

NOAA 16 DEB, 41149 is space debris in SSO originally from a launch on Thu, 21 Sep 2000 UTC launched from the Air Force Western Test Range (AFWTR). Debris objects in space refer to the collection of defunct objects orbiting the Earth. Examples of debris include non-operational satellites, rocket bodies, and fragments generated from explosions, collisions, or faulty payload assembly.

Loading next visibility...
Identifier
41149, 2000-055CG
Orbit
SSO
Country
Flag of USUS
Related business
Manufacturer
Unknown
Mission
Spacecraft
Bus & Motor
Unknown
Mass
Unknown
Launch date (UTC)
2000-09-21 (25 years ago)
Launch vehicle
Unknown
Launch site
Air Force Western Test Range (AFWTR)
Object type
Payload
Rocket body
Debris
Shape & HBR
Unknown shape, 0.1 m
Radar Cross Section
Small (<0.1 m²)

Expand to show TLE details & history
Last TLE update: 23 hours ago

TLE from 23 hours ago
0 NOAA 16 DEB
1 41149U 00055CG  25342.14759989  .00027070  00000-0  40549-2 0  9997
2 41149  98.9289 231.9551 0035006 164.3140 195.9159 14.74185401525506
Epoch: 2025-12-08T03:32Z
TLE epoch observation values (Epoch: 2025-12-08T03:32:32.630Z)
Latitude
0.00002°
Longitude
101.66834°
Altitude
674.383 km
Speed
7.507 km/s
True Right ascension
15h 27m 49s
True Declination
0° 00' 00"
Sunlit
Object was in daylight at epoch
Visualization orbit readout
Latitude
Unknown
Longitude
Unknown
Altitude
Unknown
Speed
Unknown
Apparent Right ascension
Unknown
Apparent Declination
Unknown
Sunlit
N/A
Visualization observer readout
Local Sidereal Time
00:24:31
Azimuth
Unknown
Elevation
Unknown
Doppler factor
Unknown
Orbital elements
Apogee altitude
669.42 km
Perigee altitude
620.251 km
Semi-major axis
7,022.973 km
Eccentricity
0.0035
Inclination
98.9289°
RAAN
231.9551°
Arg. of periapsis
164.314°
True anomaly
195.80636°
Mean anomaly
195.9159°
Eccentric anomaly
195.86108°
Mean motion
3.68775 °/min
Orbital period
97.62 mins
BSTAR
0.0040549
Loading maneuver chart data...
Computing Atmospheric mass density...
Loading historical data...
Loading historical data...
Loading historical data...
Loading historical data...
Loading historical data...
Loading historical data...
Loading historical data...

Documentation

Showing up to 5 results
|